Showing default

YAM-7, 60504

Orbit data source: Space-Track

YAM-7, 60504 is an American payload satellite in SSO that was launched on Fri, 16 Aug 2024 UTC via an FALCON 9 launch vehicle from the Air Force Western Test Range (AFWTR). Payload-class satellites include a variety of spacecraft equipped with specific instruments for various scientific and technological missions. These include communications satellites like Starlink; space stations such as the ISS; scientific satellites like the Hubble; Earth observation satellites from companies like Planet Labs, Umbra, and HawkEye 360; GPS; miniature CubeSats for education and research; and military/defense satellites.

Loading next visibility...
Identifier
60504, 2024-149AN
Orbit
SSO
Country
Flag of USUS
Related business
Manufacturer
LeoStella
Mission
Operational Commercial Technology
Bus & Motor
YAM, Unknown motor
Mass
91 kg wet, 91 kg dry
Launch date (UTC)
2024-08-16 (2 years ago)
Launch vehicle
FALCON 9
Launch site
Air Force Western Test Range (AFWTR)
Object type
Payload
Rocket body
Debris
Shape & HBR
Box, 1.0 m
Radar Cross Section
0.875 m², Medium (>0.1 m² and < 1m²)

Expand to show TLE details & history
Last TLE update: 13 hours ago

TLE from 13 hours ago
0 YAM-7
1 60504U 24149AN  26257.19250251  .00005377  00000-0  17175-3 0  9998
2 60504  97.3728 337.1196 0002970   5.8247 354.3029 15.32889502115687
Epoch: 2026-09-14T04:37Z
TLE epoch observation values (Epoch: 2026-09-14T04:37:12.216Z)
Latitude
-0.00007°
Longitude
-85.35762°
Altitude
468.282 km
Speed
7.633 km/s
True Right ascension
22h 28m 28s
True Declination
0° 00' 00"
Sunlit
Object was in full shadow at epoch
Visualization orbit readout
Latitude
Unknown
Longitude
Unknown
Altitude
Unknown
Speed
Unknown
Apparent Right ascension
Unknown
Apparent Declination
Unknown
Sunlit
N/A
Visualization observer readout
Local Sidereal Time
10:31:55
Azimuth
Unknown
Elevation
Unknown
Doppler factor
Unknown
Orbital elements
Apogee altitude
466.176 km
Perigee altitude
462.112 km
Semi-major axis
6,842.281 km
Eccentricity
0.0003
Inclination
97.3728°
RAAN
337.1196°
Arg. of periapsis
5.8247°
True anomaly
354.29952°
Mean anomaly
354.3029°
Eccentric anomaly
354.30121°
Mean motion
3.83479 °/min
Orbital period
93.88 mins
BSTAR
0.00017175
Loading maneuver chart data...
Computing Atmospheric mass density...

Documentation

Showing up to 5 results
|